User: anonymous   Login
Location: Unspecified
(48.7670°N, 0.0000°E)
Time: 13:35:32
(UTC+00:00)
Language:

PicSat - Orbit

View from above orbital plane
View from above orbital plane
View from above satellite
View from above satellite

Ground track
Ground track

The orbit data is extracted from the following two-line orbital elements,

1 43131U 18004W   19236.83861473 +.00000891 +00000-0 +39460-4 0  9990
2 43131 097.4847 304.8041 0009999 027.5474 332.6291 15.24262188089741
Epoch (UTC): 24 August 2019 20:07:36
Eccentricity: 0.0009999
inclination: 97.4847°
perigee height: 486 km
apogee height: 500 km
right ascension of ascending node: 304.8041°
argument of perigee: 27.5474°
revolutions per day: 15.24262188
mean anomaly at epoch: 332.6291°
orbit number at epoch: 8974

The dashed part of the orbit path shows where the satellite is in the earth's shadow,  

DLR